Вернуться в каталог

STARLINK-1828

АктивенСвязьVLEO
NORAD 46725·PAYLOAD·🇺🇸 United States

Запущен Oct 18, 2020 с Cape Canaveral Space Force Station

Loading…

Ближайшие Пролёты (ближайшие 24 часа)

TLE

СвежийSource: CelesTrak SupGP

Эпоха: Sep 15, 2026, 02:47 UTC

1 46725C 20073BH  26258.11645833  .00268990  00000+0  78993-3 0  2580
2 46725  53.0404  19.1890 0007329 318.3995 354.5455 15.91792225    14

Отслеживайте STARLINK-1828 в реальном времени с AllMySat

Download on the App Store